Location: Frydek-Mistek
(49.6830°N, 18.3330°E)
Time: 05:49:38
(UTC+02:00)

ISS - Pass Details

Date: 22 May 2021
Orbit: 417 x 422 km, 51.6° (Epoch: 13 June)

Event Time Altitude Azimuth Distance (km) Brightness Sun altitude
Rises 21:20:58 0° 268° (W) 2,362 0.8 -6.7°
Reaches altitude 10° 21:23:04 10° 271° (W) 1,500 -0.2 -7.0°
Maximum altitude 21:26:25 62° 353° (N) 475 -3.2 -7.3°
Drops below altitude 10° 21:29:46 10° 76° (ENE) 1,504 -1.2 -7.7°
Sets 21:31:53 0° 80° (E) 2,370 -0.3 -8.0°
